����������;��������(kWh)
2016-07-18 00:00;87,8
2016-07-18 00:15;89,8
2016-07-18 00:30;92,25
2016-07-18 00:45;93,45
2016-07-18 01:00;88,55
2016-07-18 01:15;85,85
2016-07-18 01:30;86,6
2016-07-18 01:45;88,1
2016-07-18 02:00;88
2016-07-18 02:15;89,7
2016-07-18 02:30;88
2016-07-18 02:45;90,4
2016-07-18 03:00;87,5
2016-07-18 03:15;88,85
2016-07-18 03:30;86,25
2016-07-18 03:45;89,95
2016-07-18 04:00;86,9
2016-07-18 04:15;91,55
2016-07-18 04:30;86,2
2016-07-18 04:45;85,85
2016-07-18 05:00;88,4
2016-07-18 05:15;86,85
2016-07-18 05:30;85
2016-07-18 05:45;87,05
2016-07-18 06:00;84,55
2016-07-18 06:15;82,05
2016-07-18 06:30;82,25
2016-07-18 06:45;79,45
2016-07-18 07:00;81,9
2016-07-18 07:15;87,6
2016-07-18 07:30;91,45
2016-07-18 07:45;150,15
2016-07-18 08:00;136,75
2016-07-18 08:15;121,4
2016-07-18 08:30;125,95
2016-07-18 08:45;128,45
2016-07-18 09:00;134,6
2016-07-18 09:15;149,4
2016-07-18 09:30;156,25
2016-07-18 09:45;159,35
2016-07-18 10:00;161,45
2016-07-18 10:15;176,4
2016-07-18 10:30;180,95
2016-07-18 10:45;186,5
2016-07-18 11:00;197,4
2016-07-18 11:15;193,45
2016-07-18 11:30;197
2016-07-18 11:45;224,85
2016-07-18 12:00;248,25
2016-07-18 12:15;240,35
2016-07-18 12:30;219,75
2016-07-18 12:45;234
2016-07-18 13:00;229,05
2016-07-18 13:15;214,5
2016-07-18 13:30;228,5
2016-07-18 13:45;223,35
2016-07-18 14:00;218,6
2016-07-18 14:15;213,8
2016-07-18 14:30;202,55
2016-07-18 14:45;202,5
2016-07-18 15:00;183,7
2016-07-18 15:15;182,45
2016-07-18 15:30;171,3
2016-07-18 15:45;164,15
2016-07-18 16:00;152,6
2016-07-18 16:15;146,6
2016-07-18 16:30;144,6
2016-07-18 16:45;147,4
2016-07-18 17:00;139,3
2016-07-18 17:15;132
2016-07-18 17:30;127,4
2016-07-18 17:45;136,7
2016-07-18 18:00;129,65
2016-07-18 18:15;128,75
2016-07-18 18:30;125,5
2016-07-18 18:45;122,9
2016-07-18 19:00;127,3
2016-07-18 19:15;112,55
2016-07-18 19:30;108,65
2016-07-18 19:45;109,05
2016-07-18 20:00;110,6
2016-07-18 20:15;112,75
2016-07-18 20:30;111,2
2016-07-18 20:45;106,4
2016-07-18 21:00;106
2016-07-18 21:15;101,7
2016-07-18 21:30;102,1
2016-07-18 21:45;97,05
2016-07-18 22:00;98,9
2016-07-18 22:15;97,15
2016-07-18 22:30;98,45
2016-07-18 22:45;96,65
2016-07-18 23:00;107,7
2016-07-18 23:15;101,35
2016-07-18 23:30;103,45
2016-07-18 23:45;106,85
2016-07-19 00:00;90,85
2016-07-19 00:15;90,1
2016-07-19 00:30;87
2016-07-19 00:45;87,75
2016-07-19 01:00;86,95
2016-07-19 01:15;86,8
2016-07-19 01:30;85,6
2016-07-19 01:45;85
2016-07-19 02:00;83,6
2016-07-19 02:15;83,4
2016-07-19 02:30;78,7
2016-07-19 02:45;78,25
2016-07-19 03:00;80,75
2016-07-19 03:15;78,3
2016-07-19 03:30;81,45
2016-07-19 03:45;79
2016-07-19 04:00;81,15
2016-07-19 04:15;78,45
2016-07-19 04:30;80,85
2016-07-19 04:45;77,25
2016-07-19 05:00;78,9
2016-07-19 05:15;76,2
2016-07-19 05:30;76,5
2016-07-19 05:45;77,6
2016-07-19 06:00;84,4
2016-07-19 06:15;82,2
2016-07-19 06:30;76,25
2016-07-19 06:45;72,2
2016-07-19 07:00;79,2
2016-07-19 07:15;85,95
2016-07-19 07:30;86,55
2016-07-19 07:45;146,8
2016-07-19 08:00;108,9
2016-07-19 08:15;116,55
2016-07-19 08:30;119,8
2016-07-19 08:45;124,65
2016-07-19 09:00;134,2
2016-07-19 09:15;140,3
2016-07-19 09:30;160,1
2016-07-19 09:45;166,85
2016-07-19 10:00;169,35
2016-07-19 10:15;185,7
2016-07-19 10:30;190,2
2016-07-19 10:45;204,55
2016-07-19 11:00;209,4
2016-07-19 11:15;199,65
2016-07-19 11:30;214,65
2016-07-19 11:45;204,25
2016-07-19 12:00;202,05
2016-07-19 12:15;212,65
2016-07-19 12:30;208,3
2016-07-19 12:45;212,15
2016-07-19 13:00;229,65
2016-07-19 13:15;213,5
2016-07-19 13:30;216,25
2016-07-19 13:45;211,95
2016-07-19 14:00;212
2016-07-19 14:15;205,45
2016-07-19 14:30;217,2
2016-07-19 14:45;215,15
2016-07-19 15:00;199,6
2016-07-19 15:15;186,6
2016-07-19 15:30;185,05
2016-07-19 15:45;174,2
2016-07-19 16:00;174,4
2016-07-19 16:15;164,75
2016-07-19 16:30;152,65
2016-07-19 16:45;146,25
2016-07-19 17:00;142,05
2016-07-19 17:15;134,55
2016-07-19 17:30;138,95
2016-07-19 17:45;135,75
2016-07-19 18:00;126,8
2016-07-19 18:15;134
2016-07-19 18:30;125,5
2016-07-19 18:45;124,05
2016-07-19 19:00;127,95
2016-07-19 19:15;109,4
2016-07-19 19:30;116,95
2016-07-19 19:45;116,35
2016-07-19 20:00;112,6
2016-07-19 20:15;106,95
2016-07-19 20:30;103,9
2016-07-19 20:45;102,7
2016-07-19 21:00;105,5
2016-07-19 21:15;105,35
2016-07-19 21:30;102,95
2016-07-19 21:45;104,3
2016-07-19 22:00;101,65
2016-07-19 22:15;101,85
2016-07-19 22:30;101,45
2016-07-19 22:45;103,25
2016-07-19 23:00;108,95
2016-07-19 23:15;100,55
2016-07-19 23:30;98,9
2016-07-19 23:45;104,5
2016-07-20 00:00;87,4
2016-07-20 00:15;86,75
2016-07-20 00:30;86,55
2016-07-20 00:45;86,35
2016-07-20 01:00;84,75
2016-07-20 01:15;85,55
2016-07-20 01:30;84,05
2016-07-20 01:45;85
2016-07-20 02:00;85,75
2016-07-20 02:15;85,85
2016-07-20 02:30;86
2016-07-20 02:45;85,95
2016-07-20 03:00;84,9
2016-07-20 03:15;85,2
2016-07-20 03:30;85,7
2016-07-20 03:45;84,7
2016-07-20 04:00;85,55
2016-07-20 04:15;83,95
2016-07-20 04:30;84,3
2016-07-20 04:45;84,1
2016-07-20 05:00;85,1
2016-07-20 05:15;82,6
2016-07-20 05:30;84,7
2016-07-20 05:45;83,25
2016-07-20 06:00;100,65
2016-07-20 06:15;97,5
2016-07-20 06:30;91,5
2016-07-20 06:45;98,5
2016-07-20 07:00;97,6
2016-07-20 07:15;109,95
2016-07-20 07:30;104,7
2016-07-20 07:45;160,15
2016-07-20 08:00;119,05
2016-07-20 08:15;117,2
2016-07-20 08:30;129,55
2016-07-20 08:45;127,2
2016-07-20 09:00;132,4
2016-07-20 09:15;147,7
2016-07-20 09:30;141,25
2016-07-20 09:45;156,05
2016-07-20 10:00;182,5
2016-07-20 10:15;176,85
2016-07-20 10:30;172,7
2016-07-20 10:45;175,05
2016-07-20 11:00;186,95
2016-07-20 11:15;193,15
2016-07-20 11:30;188,55
2016-07-20 11:45;185,4
2016-07-20 12:00;188,95
2016-07-20 12:15;193,8
2016-07-20 12:30;201,8
2016-07-20 12:45;193,85
2016-07-20 13:00;199,75
2016-07-20 13:15;195,2
2016-07-20 13:30;191,75
2016-07-20 13:45;199,95
2016-07-20 14:00;198,55
2016-07-20 14:15;194,05
2016-07-20 14:30;190,45
2016-07-20 14:45;185,95
2016-07-20 15:00;191
2016-07-20 15:15;171,55
2016-07-20 15:30;159,1
2016-07-20 15:45;154,7
2016-07-20 16:00;153,85
2016-07-20 16:15;140,6
2016-07-20 16:30;135,65
2016-07-20 16:45;140,5
2016-07-20 17:00;137,25
2016-07-20 17:15;128,1
2016-07-20 17:30;127,75
2016-07-20 17:45;131,55
2016-07-20 18:00;122,8
2016-07-20 18:15;127,65
2016-07-20 18:30;123,35
2016-07-20 18:45;121,8
2016-07-20 19:00;123,05
2016-07-20 19:15;108,55
2016-07-20 19:30;108,3
2016-07-20 19:45;105,9
2016-07-20 20:00;104,1
2016-07-20 20:15;95,7
2016-07-20 20:30;89,15
2016-07-20 20:45;90
2016-07-20 21:00;92,95
2016-07-20 21:15;90,55
2016-07-20 21:30;92,6
2016-07-20 21:45;94,15
2016-07-20 22:00;97,25
2016-07-20 22:15;94,55
2016-07-20 22:30;89,7
2016-07-20 22:45;87,15
2016-07-20 23:00;92,4
2016-07-20 23:15;90,35
2016-07-20 23:30;94,2
2016-07-20 23:45;98,75
2016-07-21 00:00;83,55
2016-07-21 00:15;85,35
2016-07-21 00:30;83,6
2016-07-21 00:45;85,3
2016-07-21 01:00;83,1
2016-07-21 01:15;82,2
2016-07-21 01:30;78,95
2016-07-21 01:45;79,1
2016-07-21 02:00;77,65
2016-07-21 02:15;79,55
2016-07-21 02:30;79,4
2016-07-21 02:45;77,95
2016-07-21 03:00;79,05
2016-07-21 03:15;76,85
2016-07-21 03:30;77,95
2016-07-21 03:45;75,9
2016-07-21 04:00;77,3
2016-07-21 04:15;75,55
2016-07-21 04:30;78,35
2016-07-21 04:45;75,6
2016-07-21 05:00;74,4
2016-07-21 05:15;76,2
2016-07-21 05:30;74,25
2016-07-21 05:45;76,45
2016-07-21 06:00;79,95
2016-07-21 06:15;79,25
2016-07-21 06:30;75,2
2016-07-21 06:45;81,95
2016-07-21 07:00;81,15
2016-07-21 07:15;88,3
2016-07-21 07:30;93,45
2016-07-21 07:45;145,85
2016-07-21 08:00;106,1
2016-07-21 08:15;106,6
2016-07-21 08:30;111,95
2016-07-21 08:45;112,95
2016-07-21 09:00;112,35
2016-07-21 09:15;130
2016-07-21 09:30;136,35
2016-07-21 09:45;147
2016-07-21 10:00;140,1
2016-07-21 10:15;141,6
2016-07-21 10:30;147,9
2016-07-21 10:45;151,7
2016-07-21 11:00;159
2016-07-21 11:15;175,25
2016-07-21 11:30;171,6
2016-07-21 11:45;234,15
2016-07-21 12:00;221,85
2016-07-21 12:15;201,9
2016-07-21 12:30;208,25
2016-07-21 12:45;188,75
2016-07-21 13:00;190,55
2016-07-21 13:15;187,75
2016-07-21 13:30;187,25
2016-07-21 13:45;187,95
2016-07-21 14:00;186,8
2016-07-21 14:15;186,35
2016-07-21 14:30;184,4
2016-07-21 14:45;170,4
2016-07-21 15:00;165,4
2016-07-21 15:15;162,1
2016-07-21 15:30;152,4
2016-07-21 15:45;153,4
2016-07-21 16:00;148,95
2016-07-21 16:15;139,15
2016-07-21 16:30;137,15
2016-07-21 16:45;138,4
2016-07-21 17:00;125,75
2016-07-21 17:15;122,05
2016-07-21 17:30;124
2016-07-21 17:45;122
2016-07-21 18:00;117,2
2016-07-21 18:15;122,2
2016-07-21 18:30;119,05
2016-07-21 18:45;115,4
2016-07-21 19:00;119,4
2016-07-21 19:15;107,9
2016-07-21 19:30;112,1
2016-07-21 19:45;110,9
2016-07-21 20:00;102,9
2016-07-21 20:15;97
2016-07-21 20:30;93,55
2016-07-21 20:45;92,3
2016-07-21 21:00;97,7
2016-07-21 21:15;93,15
2016-07-21 21:30;95,1
2016-07-21 21:45;94,7
2016-07-21 22:00;96,9
2016-07-21 22:15;94,25
2016-07-21 22:30;93,8
2016-07-21 22:45;91,05
2016-07-21 23:00;98,7
2016-07-21 23:15;89,8
2016-07-21 23:30;93,05
2016-07-21 23:45;96,65
2016-07-22 00:00;83,7
2016-07-22 00:15;84,1
2016-07-22 00:30;77,6
2016-07-22 00:45;77,9
2016-07-22 01:00;77
2016-07-22 01:15;75,7
2016-07-22 01:30;73,5
2016-07-22 01:45;74,7
2016-07-22 02:00;72,9
2016-07-22 02:15;73,15
2016-07-22 02:30;74,65
2016-07-22 02:45;73,3
2016-07-22 03:00;76
2016-07-22 03:15;74,5
2016-07-22 03:30;74,1
2016-07-22 03:45;72,05
2016-07-22 04:00;73,4
2016-07-22 04:15;72,55
2016-07-22 04:30;73,45
2016-07-22 04:45;73,45
2016-07-22 05:00;72,9
2016-07-22 05:15;74
2016-07-22 05:30;73,1
2016-07-22 05:45;72,65
2016-07-22 06:00;75,8
2016-07-22 06:15;77,15
2016-07-22 06:30;74,7
2016-07-22 06:45;74,3
2016-07-22 07:00;79,9
2016-07-22 07:15;84,65
2016-07-22 07:30;86,45
2016-07-22 07:45;143,2
2016-07-22 08:00;95,35
2016-07-22 08:15;107,6
2016-07-22 08:30;109,95
2016-07-22 08:45;89,1
2016-07-22 09:00;121
2016-07-22 09:15;131,7
2016-07-22 09:30;148
2016-07-22 09:45;143,4
2016-07-22 10:00;134,9
2016-07-22 10:15;148,05
2016-07-22 10:30;153,85
2016-07-22 10:45;155,3
2016-07-22 11:00;203,6
2016-07-22 11:15;212,5
2016-07-22 11:30;169
2016-07-22 11:45;184,95
2016-07-22 12:00;186,75
2016-07-22 12:15;191,7
2016-07-22 12:30;185,3
2016-07-22 12:45;173,15
2016-07-22 13:00;183,05
2016-07-22 13:15;182,2
2016-07-22 13:30;178,9
2016-07-22 13:45;176,3
2016-07-22 14:00;185,3
2016-07-22 14:15;181
2016-07-22 14:30;169,55
2016-07-22 14:45;166,55
2016-07-22 15:00;168,9
2016-07-22 15:15;158,45
2016-07-22 15:30;144,15
2016-07-22 15:45;144,05
2016-07-22 16:00;136,55
2016-07-22 16:15;135,55
2016-07-22 16:30;126,2
2016-07-22 16:45;127,65
2016-07-22 17:00;123,4
2016-07-22 17:15;115,45
2016-07-22 17:30;116,75
2016-07-22 17:45;119,1
2016-07-22 18:00;110,15
2016-07-22 18:15;113,8
2016-07-22 18:30;106,75
2016-07-22 18:45;104,25
2016-07-22 19:00;113,6
2016-07-22 19:15;96,95
2016-07-22 19:30;100,7
2016-07-22 19:45;104,55
2016-07-22 20:00;100,75
2016-07-22 20:15;103,5
2016-07-22 20:30;91,7
2016-07-22 20:45;91,8
2016-07-22 21:00;91,4
2016-07-22 21:15;94,5
2016-07-22 21:30;93
2016-07-22 21:45;93,3
2016-07-22 22:00;94,45
2016-07-22 22:15;95,35
2016-07-22 22:30;95,95
2016-07-22 22:45;94,1
2016-07-22 23:00;98,85
2016-07-22 23:15;93,45
2016-07-22 23:30;95,6
2016-07-22 23:45;97,45
2016-07-23 00:00;84,4
2016-07-23 00:15;84,65
2016-07-23 00:30;81,6
2016-07-23 00:45;78,4
2016-07-23 01:00;78,7
2016-07-23 01:15;77,15
2016-07-23 01:30;76,8
2016-07-23 01:45;75,3
2016-07-23 02:00;76,55
2016-07-23 02:15;75,5
2016-07-23 02:30;77,05
2016-07-23 02:45;76,35
2016-07-23 03:00;76,8
2016-07-23 03:15;75,65
2016-07-23 03:30;74,6
2016-07-23 03:45;76
2016-07-23 04:00;75,3
2016-07-23 04:15;75,2
2016-07-23 04:30;72,9
2016-07-23 04:45;75,9
2016-07-23 05:00;72,9
2016-07-23 05:15;75,65
2016-07-23 05:30;73,65
2016-07-23 05:45;73,5
2016-07-23 06:00;73,35
2016-07-23 06:15;70,6
2016-07-23 06:30;70,35
2016-07-23 06:45;67,5
2016-07-23 07:00;66,5
2016-07-23 07:15;67,85
2016-07-23 07:30;70
2016-07-23 07:45;68,35
2016-07-23 08:00;70,2
2016-07-23 08:15;69,95
2016-07-23 08:30;73,25
2016-07-23 08:45;71,9
2016-07-23 09:00;72,85
2016-07-23 09:15;71,55
2016-07-23 09:30;73,95
2016-07-23 09:45;75,95
2016-07-23 10:00;73,4
2016-07-23 10:15;74,45
2016-07-23 10:30;73,1
2016-07-23 10:45;73,85
2016-07-23 11:00;74,7
2016-07-23 11:15;76,2
2016-07-23 11:30;80,25
2016-07-23 11:45;85,25
2016-07-23 12:00;85,8
2016-07-23 12:15;82,9
2016-07-23 12:30;80,05
2016-07-23 12:45;79,65
2016-07-23 13:00;78,9
2016-07-23 13:15;77,25
2016-07-23 13:30;75,7
2016-07-23 13:45;78,1
2016-07-23 14:00;76,2
2016-07-23 14:15;75,8
2016-07-23 14:30;78,35
2016-07-23 14:45;76,7
2016-07-23 15:00;72,1
2016-07-23 15:15;75,5
2016-07-23 15:30;79,9
2016-07-23 15:45;76,15
2016-07-23 16:00;79,75
2016-07-23 16:15;77,2
2016-07-23 16:30;77
2016-07-23 16:45;84,35
2016-07-23 17:00;82,5
2016-07-23 17:15;81,2
2016-07-23 17:30;83,1
2016-07-23 17:45;86,25
2016-07-23 18:00;85,8
2016-07-23 18:15;95,4
2016-07-23 18:30;88
2016-07-23 18:45;89,45
2016-07-23 19:00;94,4
2016-07-23 19:15;86,3
2016-07-23 19:30;89
2016-07-23 19:45;84,95
2016-07-23 20:00;86,75
2016-07-23 20:15;84,45
2016-07-23 20:30;83,4
2016-07-23 20:45;84,9
2016-07-23 21:00;86,05
2016-07-23 21:15;85,1
2016-07-23 21:30;84,7
2016-07-23 21:45;85
2016-07-23 22:00;82,55
2016-07-23 22:15;89,05
2016-07-23 22:30;89,45
2016-07-23 22:45;92,7
2016-07-23 23:00;91,9
2016-07-23 23:15;87
2016-07-23 23:30;87,75
2016-07-23 23:45;90,7
2016-07-24 00:00;77,75
2016-07-24 00:15;76,65
2016-07-24 00:30;76,9
2016-07-24 00:45;75,9
2016-07-24 01:00;76,95
2016-07-24 01:15;74
2016-07-24 01:30;76,4
2016-07-24 01:45;73,15
2016-07-24 02:00;75,4
2016-07-24 02:15;74,15
2016-07-24 02:30;75,45
2016-07-24 02:45;74,05
2016-07-24 03:00;74,4
2016-07-24 03:15;74,65
2016-07-24 03:30;72,85
2016-07-24 03:45;75,2
2016-07-24 04:00;72,85
2016-07-24 04:15;74,3
2016-07-24 04:30;72,95
2016-07-24 04:45;73,75
2016-07-24 05:00;73,15
2016-07-24 05:15;73,5
2016-07-24 05:30;74,15
2016-07-24 05:45;73,05
2016-07-24 06:00;74,65
2016-07-24 06:15;70,1
2016-07-24 06:30;70,45
2016-07-24 06:45;66,65
2016-07-24 07:00;68,1
2016-07-24 07:15;69,05
2016-07-24 07:30;70,8
2016-07-24 07:45;68,95
2016-07-24 08:00;71,75
2016-07-24 08:15;72
2016-07-24 08:30;74,1
2016-07-24 08:45;72,8
2016-07-24 09:00;72,1
2016-07-24 09:15;10,2
2016-07-24 09:30;0
2016-07-24 09:45;38,4
2016-07-24 10:00;73,4
2016-07-24 10:15;71,7
2016-07-24 10:30;67,3
2016-07-24 10:45;68,85
2016-07-24 11:00;71,35
2016-07-24 11:15;72,7
2016-07-24 11:30;72,9
2016-07-24 11:45;76,1
2016-07-24 12:00;75
2016-07-24 12:15;72,9
2016-07-24 12:30;74,5
2016-07-24 12:45;72,9
2016-07-24 13:00;73,6
2016-07-24 13:15;75
2016-07-24 13:30;72,35
2016-07-24 13:45;74,85
2016-07-24 14:00;73,8
2016-07-24 14:15;74,7
2016-07-24 14:30;75,1
2016-07-24 14:45;72,25
2016-07-24 15:00;82,35
2016-07-24 15:15;82,6
2016-07-24 15:30;83,6
2016-07-24 15:45;78,95
2016-07-24 16:00;77,15
2016-07-24 16:15;76
2016-07-24 16:30;74,55
2016-07-24 16:45;82,85
2016-07-24 17:00;83,1
2016-07-24 17:15;80,3
2016-07-24 17:30;82,6
2016-07-24 17:45;81,95
2016-07-24 18:00;81,45
2016-07-24 18:15;88,9
2016-07-24 18:30;84
2016-07-24 18:45;85,1
2016-07-24 19:00;91,8
2016-07-24 19:15;88,2
2016-07-24 19:30;92,6
2016-07-24 19:45;89,65
2016-07-24 20:00;91
2016-07-24 20:15;89,1
2016-07-24 20:30;86,1
2016-07-24 20:45;89,45
2016-07-24 21:00;90,85
2016-07-24 21:15;90,95
2016-07-24 21:30;92,15
2016-07-24 21:45;89,55
2016-07-24 22:00;89,5
2016-07-24 22:15;88,4
2016-07-24 22:30;89,25
2016-07-24 22:45;87,2
2016-07-24 23:00;96,5
2016-07-24 23:15;90
2016-07-24 23:30;89
2016-07-24 23:45;90,15

